No particular awareness of the weather is required.    There are no Weather-warnings


Meteo18 Weather Cam more information Meteo18 Weather Cam


Thunder radar more information blitzortung!


Rain radar more information rain snow radar


Visit our other weather sites:

Template documentation
and downloads

And another site



Weather Underground History page Text

Daily Summary for January 15, 2018 Units:  Metric    English   Both
« Previous Day
Next Day »
Daily Weekly Monthly Yearly Custom
  High: Low: Average:
Temperature: -17.8 °C -15.4 °C -14.2 °C
Dew Point: -17.8 °C -16.1 °C -14.9 °C
Humidity: Humidity % 85 % 91 %
Wind Speed: 0 km/h 0 km/h 24.6 km/h
Wind Gust: 0 km/h - -
Wind:- - SW
Pressure: 0 hPa 34107.2 hPa -
Precipitation: 238.76 mm    
Historical Graphs
 
 
Tabular Data for January 15, 2018
Time Temperature Dew Point Pressure Wind Wind Speed Wind Gust Humidity Rainfall Rate (Hourly)
-17.8 °C -17.8 °C 0 hPa Calm     Humidity % 0 mm
00:03 -14.9 °C -15.6 °C 34544 hPa Calm     92 % 0 mm
00:15 -14.9 °C -15.6 °C 34544 hPa Calm     92 % 0 mm
00:21 -14.9 °C -15.5 °C 34544 hPa Calm     93 % 0 mm
00:33 -15.1 °C -15.6 °C 34544 hPa Calm     93 % 0 mm
00:39 -15.1 °C -15.7 °C 34544 hPa Calm     93 % 0 mm
00:51 -15.1 °C -15.6 °C 34544 hPa Calm     93 % 0 mm
00:57 -15.1 °C -15.6 °C 34554.1 hPa Calm     93 % 0 mm
01:04 -15.1 °C -15.7 °C 34544 hPa Calm     93 % 0 mm
01:10 -15.1 °C -15.7 °C 34544 hPa Calm     93 % 0 mm
01:16 -15.1 °C -15.7 °C 34544 hPa Calm     93 % 0 mm
01:22 -15.2 °C -15.7 °C 34544 hPa Calm     94 % 0 mm
01:28 -15.2 °C -15.7 °C 34544 hPa Calm     94 % 0 mm
01:34 -15.2 °C -15.7 °C 34544 hPa Calm     94 % 0 mm
01:40 -15.2 °C -15.7 °C 34544 hPa Calm     94 % 0 mm
01:46 -15.2 °C -15.7 °C 34544 hPa Calm     94 % 0 mm
01:52 -15.2 °C -15.6 °C 34544 hPa Calm     95 % 0 mm
01:58 -15.1 °C -15.4 °C 34544 hPa Calm     95 % 0 mm
02:04 -14.9 °C -15.3 °C 34544 hPa Calm     95 % 0 mm
02:10 -14.9 °C -15.4 °C 34544 hPa Calm     94 % 0 mm
02:22 -15.1 °C -15.6 °C 34544 hPa Calm     94 % 0 mm
02:28 -15.1 °C -15.6 °C 34533.8 hPa West 2.3 km/h 5.1 km/h 94 % 0 mm
02:34 -14.9 °C -15.3 °C 34533.8 hPa WSW 7.6 km/h 10.3 km/h 95 % 0 mm
02:40 -14.8 °C -15.3 °C 34533.8 hPa WSW 5.1 km/h 15.6 km/h 94 % 0 mm
02:46 -14.6 °C -15.1 °C 34533.8 hPa SW 5.1 km/h 18.2 km/h 93 % 0 mm
02:53 -14.4 °C -15.2 °C 34533.8 hPa WSW 20.9 km/h 20.9 km/h 91 % 0 mm
02:59 -14.4 °C -15.2 °C 34533.8 hPa WSW 17.9 km/h 23.3 km/h 91 % 0 mm
03:05 -14.4 °C -15.2 °C 34533.8 hPa WSW 23 km/h 25.9 km/h 91 % 0 mm
03:11 -14.5 °C -15.3 °C 34533.8 hPa WSW 17.9 km/h 33.6 km/h 91 % 0 mm
03:17 -14.6 °C -15.3 °C 34520.3 hPa WSW 23 km/h 31.1 km/h 91 % 0 mm
03:27 -14.7 °C -15.3 °C 34520.3 hPa West 7.6 km/h 25.9 km/h 92 % 0 mm
03:33 -14.7 °C -15.3 °C 34520.3 hPa SW 20.9 km/h 31.1 km/h 92 % 0 mm
03:45 -14.7 °C -15.5 °C 34520.3 hPa WSW 31.4 km/h 31.4 km/h 90 % 0 mm
03:51 -14.7 °C -15.5 °C 34520.3 hPa WSW 17.9 km/h 28.5 km/h 90 % 0 mm
03:57 -14.7 °C -15.6 °C 34520.3 hPa WSW 15.6 km/h 25.9 km/h 90 % 0 mm
04:03 -14.8 °C -15.6 °C 34520.3 hPa WSW 12.7 km/h 25.9 km/h 90 % 0 mm
04:09 -14.8 °C -15.7 °C 34520.3 hPa WSW 10.3 km/h 23.3 km/h 90 % 0 mm
04:15 -14.8 °C -15.7 °C 34510.1 hPa SW 15.6 km/h 25.9 km/h 90 % 0 mm
04:21 -14.9 °C -15.7 °C 34510.1 hPa SW 20.9 km/h 25.9 km/h 90 % 0 mm
04:33 -14.9 °C -15.8 °C 34510.1 hPa NW 7.6 km/h 20.8 km/h 90 % 0 mm
04:39 -14.9 °C -15.8 °C 34510.1 hPa South 10.3 km/h 23.3 km/h 90 % 0 mm
04:47 -14.9 °C -15.7 °C 34510.1 hPa SW 15.6 km/h 20.8 km/h 90 % 0 mm
04:53 -14.9 °C -15.8 °C 34510.1 hPa SW 5.1 km/h 18.2 km/h 90 % 0 mm
04:59 -15 °C -15.8 °C 34510.1 hPa SW 10.3 km/h 10.3 km/h 90 % 0 mm
05:05 -15.1 °C -15.8 °C 34496.6 hPa SW 17.9 km/h 18.2 km/h 91 % 0 mm
05:11 -15.1 °C -15.8 °C 34496.6 hPa SSW 12.7 km/h 15.6 km/h 91 % 0 mm
05:19 -15.2 °C -15.9 °C 34496.6 hPa SSW 7.6 km/h 10.3 km/h 91 % 0 mm
05:25 -15.3 °C -16 °C 34496.6 hPa SSW 10.3 km/h 15.6 km/h 92 % 0 mm
05:31 -15.3 °C -16 °C 34496.6 hPa South 7.6 km/h 15.6 km/h 92 % 0 mm
05:43 -15.2 °C -15.9 °C 34496.6 hPa SW 15.6 km/h 18.2 km/h 92 % 0 mm
05:49 -15.2 °C -15.9 °C 34496.6 hPa SW 10.3 km/h 12.9 km/h 91 % 0 mm
05:55 -15.2 °C -15.9 °C 34496.6 hPa SSW 5.1 km/h 7.7 km/h 91 % 0 mm
06:01 -15.3 °C -16.1 °C 34496.6 hPa SSW 5.1 km/h 7.7 km/h 91 % 0 mm
06:07 -15.4 °C -16.1 °C 34496.6 hPa SSW 7.6 km/h 12.9 km/h 92 % 0 mm
06:13 -15.4 °C -16.1 °C 34496.6 hPa SSW 7.6 km/h 12.9 km/h 92 % 0 mm
06:19 -15.4 °C -16.1 °C 34496.6 hPa SSW 10.3 km/h 15.6 km/h 92 % 0 mm
06:25 -15.4 °C -16.1 °C 34496.6 hPa SSW 12.7 km/h 12.9 km/h 92 % 0 mm
06:31 -15.4 °C -16.1 °C 34486.4 hPa SSW 2.3 km/h 10.3 km/h 92 % 0 mm
06:37 -15.4 °C -16.1 °C 34496.6 hPa SSW 2.3 km/h 10.3 km/h 92 % 0 mm
06:43 -15.4 °C -16.1 °C 34496.6 hPa SSW 5.1 km/h 7.7 km/h 92 % 0 mm
06:49 -15.4 °C -16.1 °C 34496.6 hPa South 7.6 km/h 7.7 km/h 92 % 0 mm
06:55 -15.4 °C -16.1 °C 34486.4 hPa SSW 5.1 km/h 7.7 km/h 92 % 0 mm
07:01 -15.4 °C -16.1 °C 34486.4 hPa SSW 2.3 km/h 7.7 km/h 92 % 0 mm
07:07 -15.4 °C -16.1 °C 34486.4 hPa SSW 2.3 km/h 5.1 km/h 92 % 0 mm
07:13 -15.4 °C -16.1 °C 34496.6 hPa SW 5.1 km/h 12.9 km/h 92 % 0 mm
07:19 -15.2 °C -15.9 °C 34496.6 hPa WSW 20.9 km/h 23.3 km/h 91 % 0 mm
07:31 -15.1 °C -16 °C 34496.6 hPa SSW 15.6 km/h 31.1 km/h 89 % 0 mm
07:37 -14.9 °C -15.9 °C 34510.1 hPa SSW 17.9 km/h 31.1 km/h 88 % 0 mm
07:43 -14.9 °C -15.9 °C 34496.6 hPa SW 20.9 km/h 25.9 km/h 88 % 0 mm
07:53 -14.8 °C -15.8 °C 34510.1 hPa SW 10.3 km/h 20.8 km/h 88 % 0 mm
07:59 -14.8 °C -15.8 °C 34510.1 hPa SSW 12.7 km/h 28.5 km/h 88 % 0 mm
08:05 -14.8 °C -15.8 °C 34496.6 hPa SSW 10.3 km/h 23.3 km/h 88 % 0 mm
08:11 -14.9 °C -15.8 °C 34496.6 hPa SSW 10.3 km/h 12.9 km/h 89 % 0 mm
08:19 -14.9 °C -15.8 °C 34496.6 hPa SW 15.6 km/h 20.8 km/h 90 % 0 mm
08:25 -14.9 °C -15.8 °C 34486.4 hPa SSW 17.9 km/h 20.8 km/h 90 % 0 mm
08:33 -14.9 °C -15.8 °C 34476.3 hPa SSW 15.6 km/h 25.9 km/h 90 % 0 mm
08:39 -14.9 °C -15.9 °C 34486.4 hPa SW 12.7 km/h 23.3 km/h 89 % 0 mm
08:45 -14.9 °C -15.8 °C 34486.4 hPa SSW 26.2 km/h 33.6 km/h 89 % 0 mm
08:51 -14.8 °C -15.8 °C 34486.4 hPa South 31.4 km/h 36.2 km/h 88 % 0 mm
09:01 -14.9 °C -15.8 °C 34476.3 hPa SSW 17.9 km/h 28.5 km/h 89 % 0 mm
09:07 -14.8 °C -15.8 °C 34476.3 hPa SSW 12.7 km/h 28.5 km/h 89 % 0 mm
09:13 -14.8 °C -15.7 °C 34476.3 hPa SW 15.6 km/h 36.2 km/h 89 % 0 mm
09:19 -14.7 °C -15.7 °C 34476.3 hPa SSW 33.6 km/h 36.2 km/h 88 % 0 mm
09:27 -14.6 °C -15.6 °C 34462.7 hPa SW 23 km/h 38.8 km/h 88 % 0 mm
09:33 -14.6 °C -15.6 °C 34462.7 hPa SSW 36.5 km/h 38.8 km/h 88 % 0 mm
09:39 -14.6 °C -15.7 °C 34452.6 hPa SSW 33.6 km/h 44.1 km/h 87 % 0 mm
09:51 -14.6 °C -15.6 °C 34452.6 hPa SW 23 km/h 33.6 km/h 88 % 0 mm
09:57 -14.6 °C -15.6 °C 34452.6 hPa SW 33.6 km/h 44.1 km/h 88 % 0 mm
10:03 -14.5 °C -15.6 °C 34442.4 hPa SSW 31.4 km/h 33.6 km/h 87 % 0 mm
10:09 -14.4 °C -15.6 °C 34442.4 hPa SSW 17.9 km/h 36.2 km/h 87 % 0 mm
10:15 -14.4 °C -15.5 °C 34428.8 hPa SSW 41.7 km/h 41.7 km/h 87 % 0 mm
10:21 -14.4 °C -15.5 °C 34428.8 hPa SSW 28.5 km/h 38.8 km/h 87 % 0 mm
10:27 -14.3 °C -15.4 °C 34428.8 hPa SSW 23 km/h 33.6 km/h 87 % 0 mm
10:33 -14.3 °C -15.4 °C 34428.8 hPa SSW 23 km/h 41.4 km/h 87 % 0 mm
10:39 -14.3 °C -15.5 °C 34428.8 hPa South 26.2 km/h 28.5 km/h 86 % 0 mm
10:45 -14.3 °C -15.5 °C 34418.7 hPa SSW 17.9 km/h 33.6 km/h 86 % 0 mm
10:51 -14.2 °C -15.4 °C 34418.7 hPa SW 41.7 km/h 44.1 km/h 86 % 0 mm
10:57 -14.2 °C -15.4 °C 34418.7 hPa SW 31.4 km/h 46.7 km/h 86 % 0 mm
11:03 -14.2 °C -15.4 °C 34428.8 hPa SSW 23 km/h 44.1 km/h 86 % 0 mm
11:27 -14.1 °C -15.3 °C 34418.7 hPa SW 31.4 km/h 41.4 km/h 86 % 0 mm
11:37 -14.1 °C -15.3 °C 34418.7 hPa SW 41.7 km/h 51.8 km/h 86 % 0 mm
11:47 -14.1 °C -15.3 °C 34418.7 hPa SW 28.5 km/h 44.1 km/h 85 % 0 mm
11:53 -14 °C -15.3 °C 34418.7 hPa SW 44.1 km/h 46.7 km/h 85 % 0 mm
11:59 -14.1 °C -15.3 °C 34405.1 hPa WSW 17.9 km/h 41.4 km/h 86 % 0 mm
12:05 -14.1 °C -15.3 °C 34405.1 hPa SW 20.9 km/h 41.4 km/h 86 % 0 mm
12:11 -14.1 °C -15.3 °C 34405.1 hPa WSW 12.7 km/h 33.6 km/h 86 % 0 mm
12:17 -14 °C -15.2 °C 34405.1 hPa SW 38.8 km/h 38.8 km/h 86 % 0 mm
12:25 -14 °C -15.2 °C 34395 hPa SSW 23 km/h 44.1 km/h 86 % 0 mm
12:31 -14 °C -15.2 °C 34395 hPa WSW 23 km/h 54.4 km/h 86 % 0 mm
12:37 -13.9 °C -15.2 °C 34395 hPa SW 41.7 km/h 41.7 km/h 86 % 0 mm
12:43 -13.9 °C -15.1 °C 34384.8 hPa SW 15.6 km/h 44.1 km/h 86 % 0 mm
12:51 -13.8 °C -15.1 °C 34371.3 hPa SW 15.6 km/h 38.8 km/h 86 % 0 mm
13:03 -13.8 °C -15.1 °C 34371.3 hPa SW 31.4 km/h 36.2 km/h 86 % 0 mm
13:09 -13.8 °C -15 °C 34361.1 hPa SW 36.5 km/h 49.2 km/h 86 % 0 mm
13:15 -13.8 °C -14.9 °C 34361.1 hPa SW 23 km/h 46.7 km/h 87 % 0 mm
13:21 -13.8 °C -15 °C 34361.1 hPa SW 31.4 km/h 46.7 km/h 86 % 0 mm
13:27 -13.8 °C -15 °C 34347.6 hPa WSW 28.5 km/h 36.2 km/h 86 % 0 mm
13:34 -13.8 °C -14.9 °C 34347.6 hPa SW 33.6 km/h 38.8 km/h 87 % 0 mm
13:39 -13.8 °C -14.9 °C 34337.4 hPa SSW 33.6 km/h 41.4 km/h 87 % 0 mm
13:45 -13.8 °C -14.9 °C 34337.4 hPa SW 33.6 km/h 41.4 km/h 87 % 0 mm
13:51 -13.8 °C -14.9 °C 34337.4 hPa SW 36.5 km/h 49.2 km/h 87 % 0 mm
13:58 -13.8 °C -14.8 °C 34313.7 hPa SW 44.1 km/h 54.4 km/h 88 % 0 mm
14:04 -13.7 °C -14.8 °C 34313.7 hPa SSW 36.5 km/h 49.2 km/h 88 % 0 mm
14:10 -13.7 °C -14.8 °C 34313.7 hPa SW 28.5 km/h 54.4 km/h 87 % 0 mm
14:16 -13.7 °C -14.8 °C 34303.6 hPa WSW 38.8 km/h 51.8 km/h 87 % 0 mm
14:22 -13.7 °C -14.8 °C 34293.4 hPa SSW 36.5 km/h 64.7 km/h 87 % 0 mm
14:28 -13.8 °C -14.8 °C 34269.7 hPa SW 28.5 km/h 62.1 km/h 88 % 0 mm
14:34 -13.8 °C -14.8 °C 34256.2 hPa SW 36.5 km/h 64.7 km/h 88 % 0 mm
14:44 -13.8 °C -14.8 °C 34256.2 hPa SW 44.1 km/h 64.7 km/h 89 % 0 mm
14:50 -13.8 °C -14.8 °C 34246 hPa SSW 51.5 km/h 54.4 km/h 89 % 0 mm
14:56 -13.8 °C -14.8 °C 34246 hPa South 31.4 km/h 67.3 km/h 89 % 7.62 mm
15:02 -13.8 °C -14.8 °C 34246 hPa SSW 49.2 km/h 64.7 km/h 89 % 7.62 mm
15:08 -13.8 °C -14.7 °C 34222.3 hPa SSW 36.5 km/h 59.5 km/h 90 % 7.62 mm
15:14 -13.8 °C -14.8 °C 34222.3 hPa SW 38.8 km/h 57 km/h 89 % 7.62 mm
15:20 -13.8 °C -14.7 °C 34222.3 hPa SSW 41.7 km/h 59.5 km/h 89 % 7.62 mm
15:26 -13.8 °C -14.7 °C 34222.3 hPa SSW 20.9 km/h 62.1 km/h 89 % 7.62 mm
15:40 -13.9 °C -14.7 °C 34212.1 hPa SSW 31.4 km/h 51.8 km/h 91 % 12.7 mm
15:46 -13.9 °C -14.7 °C 34212.1 hPa SW 33.6 km/h 59.5 km/h 91 % 12.7 mm
15:52 -14 °C -14.7 °C 34198.6 hPa SW 31.4 km/h 62.1 km/h 92 % 12.7 mm
15:58 -14 °C -14.7 °C 34188.4 hPa SSW 54.4 km/h 59.5 km/h 92 % 25.4 mm
16:04 -14 °C -14.6 °C 34188.4 hPa SSW 36.5 km/h 62.1 km/h 93 % 33.02 mm
16:10 -14 °C -14.6 °C 34188.4 hPa SSW 41.7 km/h 64.7 km/h 93 % 33.02 mm
16:18 -14 °C -14.6 °C 34178.3 hPa SW 56.6 km/h 69.8 km/h 93 % 38.1 mm
16:24 -14 °C -14.6 °C 34164.7 hPa SSW 33.6 km/h 67.3 km/h 93 % 38.1 mm
16:30 -14 °C -14.6 °C 34164.7 hPa SSW 49.2 km/h 54.4 km/h 93 % 45.72 mm
16:36 -14 °C -14.6 °C 34164.7 hPa SW 33.6 km/h 67.3 km/h 93 % 45.72 mm
16:44 -14 °C -14.5 °C 34164.7 hPa SW 49.2 km/h 69.8 km/h 94 % 50.8 mm
16:56 -14 °C -14.5 °C 34154.6 hPa SSW 28.5 km/h 57 km/h 94 % 45.72 mm
17:02 -14.1 °C -14.6 °C 34154.6 hPa South 49.2 km/h 57 km/h 94 % 45.72 mm
17:08 -14.1 °C -14.6 °C 34154.6 hPa South 44.1 km/h 57 km/h 94 % 45.72 mm
17:14 -14 °C -14.5 °C 34144.4 hPa SSW 56.6 km/h 62.1 km/h 94 % 38.1 mm
17:20 -14 °C -14.6 °C 34144.4 hPa SSW 44.1 km/h 62.1 km/h 93 % 38.1 mm
17:26 -13.9 °C -14.6 °C 34144.4 hPa SSW 44.1 km/h 62.1 km/h 93 % 38.1 mm
17:32 -13.9 °C -14.6 °C 34144.4 hPa SW 49.2 km/h 59.5 km/h 92 % 33.02 mm
17:38 -13.9 °C -14.6 °C 34144.4 hPa SSW 41.7 km/h 57 km/h 92 % 25.4 mm
17:48 -13.8 °C -14.6 °C 34130.9 hPa SW 36.5 km/h 67.3 km/h 91 % 33.02 mm
17:54 -13.8 °C -14.6 °C 34144.4 hPa SW 51.5 km/h 67.3 km/h 91 % 33.02 mm
18:00 -13.8 °C -14.6 °C 34144.4 hPa SW 44.1 km/h 64.7 km/h 91 % 33.02 mm
18:06 -13.8 °C -14.5 °C 34144.4 hPa WSW 41.7 km/h 62.1 km/h 92 % 33.02 mm
18:12 -13.9 °C -14.6 °C 34130.9 hPa SW 26.2 km/h 59.5 km/h 92 % 38.1 mm
18:22 -13.9 °C -14.5 °C 34130.9 hPa SW 38.8 km/h 51.8 km/h 93 % 38.1 mm
18:28 -13.9 °C -14.5 °C 34130.9 hPa SW 31.4 km/h 54.4 km/h 93 % 38.1 mm
18:34 -13.8 °C -14.4 °C 34130.9 hPa WSW 38.8 km/h 49.2 km/h 93 % 38.1 mm
18:40 -13.8 °C -14.4 °C 34120.7 hPa SW 36.5 km/h 44.1 km/h 93 % 38.1 mm
18:46 -13.8 °C -14.4 °C 34120.7 hPa SW 38.8 km/h 57 km/h 93 % 38.1 mm
18:52 -13.8 °C -14.4 °C 34120.7 hPa SW 38.8 km/h 59.5 km/h 93 % 38.1 mm
18:58 -13.7 °C -14.3 °C 34120.7 hPa WSW 26.2 km/h 57 km/h 93 % 33.02 mm
19:10 -13.7 °C -14.2 °C 34120.7 hPa WSW 28.5 km/h 64.7 km/h 94 % 12.7 mm
19:16 -13.7 °C -14.2 °C 34120.7 hPa SW 28.5 km/h 54.4 km/h 94 % 12.7 mm
19:22 -13.7 °C -14.2 °C 34120.7 hPa SW 51.5 km/h 62.1 km/h 94 % 12.7 mm
19:28 -13.7 °C -14.2 °C 34120.7 hPa WSW 44.1 km/h 46.7 km/h 94 % 12.7 mm
19:40 -13.7 °C -14.2 °C 34120.7 hPa SW 49.2 km/h 64.7 km/h 94 % 12.7 mm
19:46 -13.6 °C -14.1 °C 34120.7 hPa WSW 28.5 km/h 57 km/h 94 % 12.7 mm
19:52 -13.6 °C -14 °C 34120.7 hPa West 15.6 km/h 46.7 km/h 95 % 12.7 mm
19:58 -13.6 °C -14 °C 34120.7 hPa SW 49.2 km/h 49.2 km/h 95 % 12.7 mm
20:04 -13.6 °C -14 °C 34120.7 hPa WSW 31.4 km/h 51.8 km/h 95 % 20.32 mm
20:10 -13.6 °C -14 °C 34120.7 hPa SW 33.6 km/h 44.1 km/h 95 % 33.02 mm
20:16 -13.6 °C -14 °C 34120.7 hPa SW 33.6 km/h 51.8 km/h 95 % 38.1 mm
20:24 -13.6 °C -13.9 °C 34120.7 hPa SSW 49.2 km/h 51.8 km/h 95 % 38.1 mm
20:30 -13.5 °C -13.9 °C 34120.7 hPa West 36.5 km/h 57 km/h 95 % 38.1 mm
20:36 -13.4 °C -13.9 °C 34120.7 hPa SSW 33.6 km/h 54.4 km/h 95 % 33.02 mm
20:42 -13.4 °C -13.9 °C 34120.7 hPa WSW 31.4 km/h 46.7 km/h 95 % 38.1 mm
20:54 -13.4 °C -13.8 °C 34120.7 hPa SSW 28.5 km/h 44.1 km/h 96 % 38.1 mm
21:04 -13.4 °C -13.7 °C 34120.7 hPa SW 46.3 km/h 51.8 km/h 96 % 38.1 mm
21:10 -13.3 °C -13.6 °C 34130.9 hPa West 23 km/h 46.7 km/h 96 % 33.02 mm
21:22 -13.3 °C -13.6 °C 34120.7 hPa SW 38.8 km/h 38.8 km/h 96 % 38.1 mm
21:28 -13.3 °C -13.6 °C 34120.7 hPa WSW 33.6 km/h 36.2 km/h 96 % 38.1 mm
21:34 -13.3 °C -13.6 °C 34120.7 hPa SW 31.4 km/h 38.8 km/h 96 % 45.72 mm
21:40 -13.2 °C -13.6 °C 34120.7 hPa SW 28.5 km/h 51.8 km/h 96 % 38.1 mm
21:46 -13.2 °C -13.5 °C 34120.7 hPa SW 26.2 km/h 57 km/h 96 % 38.1 mm
21:48 -13.2 °C -13.5 °C 34120.7 hPa WSW 44.1 km/h 49.2 km/h 96 % 38.1 mm
21:49 -13.2 °C -13.6 °C 34120.7 hPa WSW 26.2 km/h 46.7 km/h 96 % 38.1 mm
21:50 -13.2 °C -13.5 °C 34120.7 hPa WSW 41.7 km/h 44.1 km/h 96 % 38.1 mm
21:52 -13.2 °C -13.5 °C 34120.7 hPa SSW 44.1 km/h 46.7 km/h 96 % 38.1 mm
21:54 -13.2 °C -13.5 °C 34120.7 hPa SW 28.5 km/h 46.7 km/h 96 % 38.1 mm
21:58 -13.1 °C -13.6 °C 34120.7 hPa SW 31.4 km/h 49.2 km/h 95 % 38.1 mm
22:00 -13.1 °C -13.6 °C 34120.7 hPa WSW 15.6 km/h 51.8 km/h 95 % 38.1 mm
22:08 -13.1 °C -13.6 °C 34120.7 hPa WSW 62 km/h 62.1 km/h 95 % 33.02 mm
22:10 -13.1 °C -13.5 °C 34120.7 hPa WSW 28.5 km/h 62.1 km/h 95 % 33.02 mm
22:16 -13.1 °C -13.5 °C 34120.7 hPa West 20.9 km/h 38.8 km/h 95 % 20.32 mm
22:22 -13 °C -13.4 °C 34107.2 hPa WSW 28.5 km/h 64.7 km/h 95 % 12.7 mm
22:24 -12.9 °C -13.4 °C 34120.7 hPa WSW 36.5 km/h 57 km/h 95 % 12.7 mm
22:26 -12.9 °C -13.4 °C 34120.7 hPa West 28.5 km/h 46.7 km/h 95 % 12.7 mm
22:28 -12.9 °C -13.4 °C 34120.7 hPa WSW 31.4 km/h 44.1 km/h 95 % 12.7 mm
22:34 -12.9 °C -13.4 °C 34120.7 hPa SSW 20.9 km/h 33.6 km/h 95 % 7.62 mm
22:40 -12.9 °C -13.4 °C 34120.7 hPa West 10.3 km/h 36.2 km/h 95 % 12.7 mm
22:46 -12.9 °C -13.4 °C 34120.7 hPa WSW 31.4 km/h 49.2 km/h 95 % 12.7 mm
22:56 -12.9 °C -13.3 °C 34120.7 hPa SW 26.2 km/h 46.7 km/h 95 % 12.7 mm
22:58 -12.9 °C -13.3 °C 34120.7 hPa SW 33.6 km/h 36.2 km/h 95 % 12.7 mm
23:08 -12.8 °C -13.3 °C 34120.7 hPa SW 36.5 km/h 54.4 km/h 95 % 12.7 mm
23:16 -12.8 °C -13.3 °C 34130.9 hPa SW 20.9 km/h 36.2 km/h 95 % 12.7 mm
23:22 -12.8 °C -13.3 °C 34130.9 hPa WNW 15.6 km/h 38.8 km/h 95 % 12.7 mm
23:32 -12.8 °C -13.2 °C 34130.9 hPa SW 28.5 km/h 46.7 km/h 95 % 12.7 mm
23:38 -12.8 °C -13.3 °C 34120.7 hPa WSW 44.1 km/h 44.1 km/h 94 % 12.7 mm
23:44 -12.7 °C -13.2 °C 34130.9 hPa SW 33.6 km/h 36.2 km/h 94 % 0 mm
23:50 -12.8 °C -13.3 °C 34120.7 hPa SW 23 km/h 46.7 km/h 94 % 7.62 mm
23:56 -12.8 °C -13.3 °C 34130.9 hPa WSW 23 km/h 41.4 km/h 94 % 7.62 mm
Meteo18
Compliments of Weather Underground - 4 mb

Script developed by  Jim McMurry - jmcmurry@mwt.net Adapted for the template by  Wim van der Kuil - Leuven-Template.eu

You find our weather info also at:

European Weather Network

Weather Underground

Equipment we use:

Weather-station
Davis Vue

Weather-program
Meteobridge

Weather-server
Raspberry PI 2 B+

Provider
1 and 1

Davis Vue

Meteobridge

Raspberry PI 2 B+

1 and 1